| time (UTC) | temp C | wind direction | speed KPH | gust KPH | rain 1hr cm | rain 24hr cm | rain mn cm | humidity % | barometer mb |
| 20260504160210 | 22 | 207 | 14.5 | 0.0 | 0.00 | 0.00 | 0.00 | 52 | 1009.3 |
| 20260504150210 | 22 | 234 | 6.4 | 0.0 | 0.00 | 0.00 | 0.00 | 32 | 1009.0 |
| 20260504140209 | 22 | 236 | 9.7 | 0.0 | 0.00 | 0.00 | 0.00 | 33 | 1009.2 |
| 20260504130215 | 24 | 84 | 6.4 | 0.0 | 0.00 | 0.00 | 0.00 | 30 | 1009.7 |
| 20260504120210 | 23 | 298 | 9.7 | 0.0 | 0.00 | 0.00 | 0.00 | 36 | 1010.1 |
| 20260504110210 | 22 | 250 | 11.3 | 0.0 | 0.00 | 0.00 | 0.00 | 40 | 1010.6 |
| 20260504100212 | 21 | 36 | 6.4 | 0.0 | 0.00 | 0.00 | 0.00 | 41 | 1011.2 |
| 20260504080210 | 16 | 71 | 0.0 | 0.0 | 0.00 | 0.00 | 0.00 | 61 | 1012.4 |
| 20260504070212 | 14 | 98 | 3.2 | 0.0 | 0.00 | 0.00 | 0.00 | 68 | 1012.7 |
| 20260504060212 | 12 | 97 | 4.8 | 0.0 | 0.00 | 0.00 | 0.00 | 75 | 1012.6 |
| 20260504050210 | 10 | 52 | 3.2 | 0.0 | 0.00 | 0.00 | 0.00 | 84 | 1012.7 |
| 20260504043211 | 10 | 53 | 0.0 | 0.0 | 0.00 | 0.00 | 0.00 | 85 | 1012.7 |
| 20260504040211 | 10 | 53 | 0.0 | 0.0 | 0.00 | 0.00 | 0.00 | 85 | 1012.8 |
| 20260504033211 | 10 | 54 | 0.0 | 0.0 | 0.00 | 0.00 | 0.00 | 85 | 1012.8 |
| 20260504030212 | 11 | 50 | 0.0 | 0.0 | 0.00 | 0.00 | 0.00 | 82 | 1013.2 |
| 20260504023211 | 11 | 51 | 0.0 | 0.0 | 0.00 | 0.00 | 0.00 | 80 | 1013.2 |
| 20260504020212 | 12 | 53 | 0.0 | 0.0 | 0.00 | 0.00 | 0.00 | 79 | 1013.1 |
| 20260504013211 | 12 | 53 | 0.0 | 0.0 | 0.00 | 0.00 | 0.00 | 77 | 1013.0 |
| 20260504010211 | 12 | 52 | 0.0 | 0.0 | 0.00 | 0.00 | 0.00 | 77 | 1013.2 |
| 20260504003210 | 12 | 9 | 3.2 | 0.0 | 0.00 | 0.00 | 0.00 | 77 | 1013.5 |
| 20260504000208 | 12 | 238 | 0.0 | 0.0 | 0.00 | 0.00 | 0.00 | 78 | 1013.7 |
| 20260503233209 | 12 | 238 | 0.0 | 0.0 | 0.00 | 0.00 | 0.00 | 76 | 1014.0 |
| 20260503230209 | 13 | 238 | 0.0 | 0.0 | 0.00 | 0.00 | 0.00 | 73 | 1014.2 |
| 20260503223210 | 13 | 238 | 0.0 | 0.0 | 0.00 | 0.00 | 0.00 | 72 | 1014.2 |
| 20260503220212 | 14 | 238 | 0.0 | 0.0 | 0.00 | 0.00 | 0.00 | 69 | 1013.8 |
| 20260503213210 | 14 | 238 | 0.0 | 0.0 | 0.00 | 0.00 | 0.00 | 67 | 1013.6 |
| 20260503210211 | 15 | 238 | 0.0 | 0.0 | 0.00 | 0.00 | 0.00 | 66 | 1013.4 |
| 20260503203209 | 15 | 238 | 3.2 | 0.0 | 0.00 | 0.00 | 0.00 | 64 | 1013.2 |
| 20260503200211 | 15 | 247 | 6.4 | 0.0 | 0.00 | 0.00 | 0.00 | 62 | 1012.8 |
| 20260503193210 | 16 | 251 | 6.4 | 0.0 | 0.00 | 0.00 | 0.00 | 57 | 1012.6 |
| 20260503190210 | 17 | 225 | 12.9 | 0.0 | 0.00 | 0.00 | 0.00 | 53 | 1012.0 |
| 20260503183209 | 17 | 267 | 17.7 | 0.0 | 0.00 | 0.00 | 0.00 | 49 | 1011.6 |
| 20260503180210 | 20 | 203 | 29.0 | 0.0 | 0.00 | 0.00 | 0.00 | 45 | 1011.5 |
| 20260503173209 | 21 | 225 | 6.4 | 0.0 | 0.00 | 0.00 | 0.00 | 47 | 1010.5 |
| 20260503170211 | 22 | 194 | 4.8 | 0.0 | 0.00 | 0.00 | 0.00 | 45 | 1010.5 |